�N����,����,�~����,�C��,���x,�C��,����,���ϕ���,�ő�u�ԕ���,�ő厞����,���˗�,�I�_���x,�n�����x,�ő啗���N��,DTYPE
"16/11/04","00:10",0.0,6.9,96.6,1012.1,302.3,1.7,3.3,325.4,0.00,6.4,13.7,"00:07:52",1
"16/11/04","00:20",0.0,7.0,96.6,1011.9,310.8,2.0,3.1,314.6,0.00,6.5,13.6,"00:18:16",1
"16/11/04","00:30",0.0,6.7,96.8,1012.1,303.4,1.8,2.7,321.7,0.00,6.3,13.7,"00:23:44",1
"16/11/04","00:40",0.0,6.6,96.9,1011.9,304.9,1.8,3.2,322.3,0.00,6.2,13.7,"00:36:08",1
"16/11/04","00:50",0.0,6.6,97.1,1011.9,296.9,1.8,2.4,320.7,0.00,6.2,13.6,"00:45:12",1
"16/11/04","01:00",0.0,6.4,97.0,1011.9,296.0,1.3,1.8,306.1,0.00,6.0,13.5,"00:50:48",1
"16/11/04","01:10",0.0,6.3,97.3,1011.6,303.9,1.7,2.7,322.0,0.00,5.9,13.5,"01:01:20",1
"16/11/04","01:20",0.0,6.2,97.4,1011.9,290.0,1.6,2.2,312.1,0.00,5.9,13.6,"01:12:16",1
"16/11/04","01:30",0.0,6.1,97.5,1011.6,296.8,1.5,2.8,320.2,0.00,5.8,13.4,"01:23:52",1
"16/11/04","01:40",0.0,6.1,97.7,1011.6,294.8,1.6,3.2,317.9,0.00,5.8,13.3,"01:33:52",1
"16/11/04","01:50",0.0,6.0,97.7,1011.6,294.1,1.2,1.9,263.5,0.00,5.7,13.3,"01:44:56",1
"16/11/04","02:00",0.0,5.9,98.2,1011.6,289.0,1.5,3.2,328.8,0.00,5.7,13.2,"01:59:52",1
"16/11/04","02:10",0.0,6.2,97.1,1011.9,292.9,1.6,2.7,321.9,0.00,5.8,13.1,"02:00:08",1
"16/11/04","02:20",0.0,5.9,97.9,1011.6,298.8,1.8,2.5,316.4,0.00,5.6,13.2,"02:12:56",1
"16/11/04","02:30",0.0,5.9,98.5,1011.6,309.5,1.8,2.4,317.3,0.00,5.7,13.2,"02:22:32",1
"16/11/04","02:40",0.0,6.1,97.4,1011.4,299.7,2.0,3.1,321.0,0.00,5.8,13.1,"02:35:20",1
"16/11/04","02:50",0.0,5.9,98.4,1011.6,307.5,2.1,2.8,321.4,0.00,5.7,13.0,"02:44:40",1
"16/11/04","03:00",0.0,6.1,97.4,1011.6,295.9,1.3,1.9,309.8,0.00,5.8,12.8,"02:56:08",1
"16/11/04","03:10",0.0,5.7,98.3,1011.6,293.9,1.7,2.4,313.7,0.00,5.5,12.8,"03:06:32",1
"16/11/04","03:20",0.0,6.1,97.9,1011.6,292.8,1.5,2.5,314.5,0.00,5.8,12.7,"03:19:36",1
"16/11/04","03:30",0.0,6.3,98.7,1011.4,308.0,1.7,2.2,312.9,0.00,6.2,12.9,"03:22:56",1
"16/11/04","03:40",0.0,6.4,97.5,1011.4,298.5,1.3,2.1,308.6,0.00,6.1,12.8,"03:36:24",1
"16/11/04","03:50",0.0,5.9,98.3,1011.4,297.0,1.5,2.0,310.9,0.00,5.7,12.9,"03:44:16",1
"16/11/04","04:00",0.0,5.9,97.6,1011.4,277.9,1.3,1.7,271.1,0.00,5.6,12.6,"03:59:04",1
"16/11/04","04:10",0.0,5.5,98.4,1011.6,285.1,1.3,1.9,306.6,0.00,5.3,12.7,"04:02:40",1
"16/11/04","04:20",0.0,5.8,98.0,1011.6,309.3,1.2,1.9,305.0,0.00,5.5,12.6,"04:11:20",1
"16/11/04","04:30",0.0,5.8,97.5,1011.6,298.9,1.8,2.4,310.6,0.00,5.5,12.7,"04:24:08",1
"16/11/04","04:40",0.0,5.8,98.8,1011.9,296.7,1.5,1.9,311.8,0.00,5.7,12.5,"04:32:56",1
"16/11/04","04:50",0.0,6.4,98.2,1011.6,302.6,1.8,2.8,321.9,0.00,6.2,12.6,"04:48:24",1
"16/11/04","05:00",0.0,6.8,97.9,1012.1,298.0,1.7,2.4,310.2,0.00,6.5,12.4,"04:50:08",1
"16/11/04","05:10",0.0,6.8,98.9,1012.1,303.1,1.5,1.9,310.2,0.00,6.7,12.5,"05:03:28",1
"16/11/04","05:20",0.0,7.3,98.0,1012.1,293.8,1.5,2.2,316.6,0.00,7.0,12.7,"05:15:52",1
"16/11/04","05:30",0.0,7.4,97.7,1012.3,303.1,1.0,1.7,320.7,0.00,7.1,12.7,"05:28:38",1
"16/11/04","05:40",0.0,7.2,98.7,1012.6,293.5,1.5,1.9,307.0,0.00,7.0,12.8,"05:39:02",1
"16/11/04","05:50",0.0,7.5,97.9,1012.6,321.8,2.1,2.5,320.3,0.00,7.2,12.8,"05:45:04",1
"16/11/04","06:00",0.0,7.5,98.7,1012.6,310.1,1.7,2.2,324.1,0.00,7.3,12.7,"05:53:22",1
"16/11/04","06:10",0.0,7.8,97.9,1012.8,298.6,1.2,1.7,304.5,0.00,7.5,13.0,"06:09:52",1
"16/11/04","06:20",0.0,7.7,98.6,1012.8,295.9,1.0,1.3,289.5,0.00,7.5,12.7,"06:17:18",1
"16/11/04","06:30",0.0,7.9,97.7,1012.6,301.9,1.2,1.8,316.0,0.00,7.6,12.9,"06:26:12",1
"16/11/04","06:40",0.0,7.8,98.4,1013.0,295.1,1.2,1.8,308.6,0.00,7.6,12.8,"06:39:50",1
"16/11/04","06:50",0.0,7.8,97.4,1012.6,303.1,1.6,2.0,317.6,0.00,7.5,12.7,"06:44:02",1
"16/11/04","07:00",0.0,7.5,98.2,1013.5,302.2,1.5,1.9,320.6,0.00,7.3,12.8,"06:52:46",1
"16/11/04","07:10",0.0,8.0,97.7,1013.0,304.7,1.2,1.8,316.1,0.00,7.7,12.9,"07:01:14",1
"16/11/04","07:20",0.0,8.0,98.2,1013.3,296.6,1.0,1.6,317.1,0.01,7.8,12.7,"07:10:40",1
"16/11/04","07:30",0.0,8.4,97.2,1013.0,297.2,1.1,1.3,310.9,0.02,8.0,12.7,"07:22:12",1
"16/11/04","07:40",0.0,8.5,98.0,1013.5,293.3,0.7,1.1,283.9,0.02,8.2,12.9,"07:30:10",1
"16/11/04","07:50",0.0,9.1,96.9,1013.3,306.7,0.7,1.2,300.8,0.02,8.7,12.7,"07:48:42",1
"16/11/04","08:00",0.0,9.1,97.3,1013.5,311.2,1.3,1.7,324.9,0.03,8.7,12.9,"07:58:40",1
"16/11/04","08:10",0.0,9.4,96.9,1013.5,305.9,1.0,1.6,322.5,0.04,9.0,12.8,"08:01:20",1
"16/11/04","08:20",0.0,9.4,96.2,1013.8,329.1,1.0,1.8,320.6,0.03,8.9,12.9,"08:17:28",1
"16/11/04","08:30",0.0,10.1,94.0,1013.8,294.4,1.0,1.6,309.2,0.06,9.2,13.2,"08:24:18",1
"16/11/04","08:40",0.0,10.9,88.4,1013.8,259.6,0.7,1.2,242.8,0.10,9.1,13.2,"08:39:36",1
"16/11/04","08:50",0.0,11.4,83.7,1014.2,263.1,1.0,1.3,261.0,0.13,8.8,13.4,"08:45:12",1
"16/11/04","09:00",0.0,11.9,79.7,1014.2,245.9,0.7,1.1,258.5,0.17,8.5,13.4,"08:50:08",1
"16/11/04","09:10",0.0,12.4,80.7,1014.5,239.5,1.0,2.2,236.7,0.22,9.2,13.4,"09:08:16",1
"16/11/04","09:20",0.0,13.1,78.4,1014.5,6.6,0.6,1.3,87.4,0.27,9.5,13.8,"09:12:08",1
"16/11/04","09:30",0.0,13.1,75.4,1014.5,233.5,0.8,1.8,227.6,0.29,8.9,13.7,"09:28:56",1
"16/11/04","09:40",0.0,13.7,74.8,1014.7,211.0,0.5,1.4,235.4,0.31,9.4,14.1,"09:30:40",1
"16/11/04","09:50",0.0,13.9,73.0,1014.7,10.5,0.5,1.1,52.7,0.33,9.2,14.0,"09:44:56",1
"16/11/04","10:00",0.0,14.6,71.5,1014.2,162.7,0.6,1.4,127.5,0.35,9.6,14.2,"09:51:20",1
"16/11/04","10:10",0.0,15.1,70.0,1014.0,192.6,0.5,1.3,193.2,0.37,9.7,14.5,"10:09:04",1
"16/11/04","10:20",0.0,15.9,66.0,1013.5,222.4,0.7,2.0,253.2,0.38,9.6,14.6,"10:15:52",1
"16/11/04","10:30",0.0,15.8,63.5,1013.3,233.6,1.2,2.8,229.3,0.40,8.9,15.0,"10:26:32",1
"16/11/04","10:40",0.0,16.5,64.2,1013.0,204.8,1.2,2.4,218.6,0.42,9.8,15.2,"10:33:04",1
"16/11/04","10:50",0.0,16.0,63.5,1012.8,210.4,1.5,3.3,235.5,0.37,9.1,15.3,"10:45:12",1
"16/11/04","11:00",0.0,15.8,61.6,1012.8,199.9,1.1,2.7,207.3,0.26,8.5,15.7,"10:59:20",1
"16/11/04","11:10",0.0,16.4,61.8,1012.3,223.2,1.5,3.1,233.0,0.34,9.1,15.7,"11:08:00",1
"16/11/04","11:20",0.0,17.1,57.7,1012.3,206.9,1.7,4.8,218.8,0.45,8.7,15.8,"11:11:28",1
"16/11/04","11:30",0.0,17.0,55.4,1012.1,326.7,1.1,2.7,228.3,0.33,8.0,16.1,"11:20:24",1
"16/11/04","11:40",0.0,17.3,56.7,1011.6,346.0,0.6,2.1,335.6,0.28,8.7,16.1,"11:36:48",1
"16/11/04","11:50",0.0,17.6,53.3,1011.4,258.5,1.2,2.9,227.8,0.43,8.0,16.1,"11:42:16",1
"16/11/04","12:00",0.0,18.1,57.3,1011.4,266.8,1.1,3.2,214.6,0.46,9.6,16.4,"11:53:36",1
"16/11/04","12:10",0.0,18.8,53.3,1011.2,271.4,1.0,3.2,202.0,0.51,9.2,16.6,"12:03:44",1
"16/11/04","12:20",0.0,17.9,56.6,1010.9,259.0,1.3,4.2,234.4,0.29,9.2,16.7,"12:12:08",1
"16/11/04","12:30",0.0,18.6,51.9,1010.7,287.0,1.3,4.5,13.1,0.45,8.6,16.9,"12:29:44",1
"16/11/04","12:40",0.0,19.0,49.8,1010.4,314.5,1.2,3.1,216.8,0.51,8.3,17.1,"12:36:00",1
"16/11/04","12:50",0.0,19.5,49.9,1010.2,269.9,1.1,2.7,226.9,0.53,8.8,17.4,"12:47:04",1
"16/11/04","13:00",0.0,18.3,52.9,1010.2,277.4,1.2,3.4,244.3,0.30,8.6,17.5,"12:51:12",1
"16/11/04","13:10",0.0,18.1,52.0,1010.4,304.9,1.2,3.7,354.3,0.29,8.1,17.3,"13:08:00",1
"16/11/04","13:20",0.0,17.6,53.8,1010.0,275.7,1.0,2.6,4.3,0.15,8.2,17.4,"13:19:36",1
"16/11/04","13:30",0.0,17.5,54.8,1010.0,327.8,1.0,3.2,3.0,0.10,8.4,17.6,"13:22:32",1
"16/11/04","13:40",0.0,17.5,53.3,1010.0,318.3,1.2,2.6,337.6,0.06,7.9,17.5,"13:36:48",1
"16/11/04","13:50",0.0,17.3,56.4,1010.4,346.0,1.3,2.4,352.9,0.06,8.6,17.5,"13:46:40",1
"16/11/04","14:00",0.0,17.0,56.8,1010.2,327.6,1.2,2.4,337.7,0.05,8.4,17.5,"13:52:08",1
"16/11/04","14:10",0.0,17.0,60.3,1009.7,318.9,1.0,2.2,341.4,0.06,9.3,17.5,"14:02:08",1
"16/11/04","14:20",0.0,16.9,60.0,1010.2,350.0,1.1,2.5,336.4,0.05,9.1,17.5,"14:10:48",1
"16/11/04","14:30",0.0,16.8,60.9,1010.2,347.2,1.2,2.6,338.9,0.06,9.3,17.3,"14:21:12",1
"16/11/04","14:40",0.0,16.8,61.0,1010.4,344.4,1.3,3.1,338.3,0.07,9.3,17.2,"14:35:12",1
"16/11/04","14:50",0.0,17.6,54.9,1010.4,354.2,1.5,3.9,346.4,0.19,8.5,17.2,"14:40:02",1
"16/11/04","15:00",0.0,17.5,53.7,1010.2,0.7,1.3,3.2,344.4,0.13,8.1,17.4,"14:51:20",1
"16/11/04","15:10",0.0,17.4,51.9,1010.4,350.4,1.5,4.0,342.9,0.12,7.5,17.2,"15:02:48",1
"16/11/04","15:20",0.0,17.2,52.3,1010.4,352.6,1.3,2.7,356.9,0.08,7.4,17.2,"15:12:32",1
"16/11/04","15:30",0.0,17.0,57.3,1010.2,325.3,1.2,2.7,346.2,0.07,8.5,17.1,"15:26:48",1
"16/11/04","15:40",0.0,17.1,57.9,1010.4,322.8,1.2,2.8,348.8,0.06,8.8,17.1,"15:35:20",1
"16/11/04","15:50",0.0,16.9,56.9,1010.2,308.8,0.8,1.9,313.5,0.03,8.3,16.9,"15:47:52",1
"16/11/04","16:00",0.0,16.4,58.4,1010.4,319.1,1.2,1.9,340.1,0.02,8.3,17.1,"15:58:32",1
"16/11/04","16:10",0.0,16.1,58.6,1010.4,325.9,1.3,3.1,345.9,0.02,8.0,16.9,"16:05:12",1
"16/11/04","16:20",0.0,16.1,62.1,1010.0,329.0,1.2,2.1,341.9,0.01,8.9,16.9,"16:14:24",1
"16/11/04","16:30",0.0,15.6,64.9,1010.2,305.3,1.0,1.7,328.4,0.00,9.1,16.8,"16:21:28",1
"16/11/04","16:40",0.0,14.9,67.5,1010.2,290.6,0.8,1.2,315.8,0.00,9.0,16.7,"16:30:32",1
"16/11/04","16:50",0.0,14.1,71.6,1010.2,290.4,0.7,1.2,314.0,0.00,9.1,16.3,"16:48:56",1
"16/11/04","17:00",0.0,13.5,74.6,1010.4,294.3,0.8,1.3,314.2,0.00,9.1,16.5,"16:50:48",1
"16/11/04","17:10",0.0,13.0,76.7,1010.4,281.4,0.7,1.1,259.8,0.00,9.0,16.4,"17:00:24",1
"16/11/04","17:20",0.0,12.6,78.5,1010.4,272.2,0.8,1.3,256.9,0.00,9.0,16.2,"17:18:02",1
"16/11/04","17:30",0.0,12.6,78.8,1010.2,277.3,1.0,1.4,297.4,0.00,9.1,16.1,"17:28:16",1
"16/11/04","17:40",0.0,12.5,78.9,1010.4,290.5,1.2,1.8,264.3,0.00,9.0,16.0,"17:35:28",1
"16/11/04","17:50",0.0,12.3,79.1,1010.7,283.2,1.2,1.6,304.3,0.00,8.8,15.8,"17:40:56",1
"16/11/04","18:00",0.0,12.1,79.9,1010.7,286.3,1.2,1.8,245.3,0.00,8.8,15.8,"17:54:08",1
"16/11/04","18:10",0.0,11.9,80.7,1010.4,280.8,1.1,2.0,310.5,0.00,8.7,15.8,"18:01:04",1
"16/11/04","18:20",0.0,11.6,81.3,1010.7,274.9,1.1,1.3,251.9,0.00,8.5,15.7,"18:14:48",1
"16/11/04","18:30",0.0,11.5,82.3,1010.7,317.3,1.3,2.0,347.3,0.00,8.6,15.4,"18:27:52",1
"16/11/04","18:40",0.0,11.3,82.5,1010.4,292.1,1.1,2.0,332.2,0.00,8.5,15.6,"18:32:08",1
"16/11/04","18:50",0.0,11.0,83.1,1010.7,280.3,1.0,1.6,310.9,0.00,8.3,15.5,"18:49:36",1
"16/11/04","19:00",0.0,10.7,84.3,1010.7,292.4,1.1,1.9,304.1,0.00,8.2,15.2,"18:56:18",1
"16/11/04","19:10",0.0,10.5,85.2,1010.7,296.6,1.0,1.7,314.1,0.00,8.2,15.3,"19:09:54",1
"16/11/04","19:20",0.0,10.2,86.1,1010.7,312.8,1.1,2.2,333.6,0.00,8.0,15.2,"19:10:28",1
"16/11/04","19:30",0.0,9.7,87.2,1010.7,294.5,1.1,1.3,300.1,0.00,7.7,15.2,"19:29:16",1
"16/11/04","19:40",0.0,9.3,89.0,1010.7,297.1,1.3,1.7,319.9,0.00,7.6,15.1,"19:35:20",1
"16/11/04","19:50",0.0,9.2,90.2,1010.7,291.6,1.3,1.7,314.8,0.00,7.7,15.0,"19:47:22",1
"16/11/04","20:00",0.0,9.0,90.7,1010.9,295.5,1.1,1.7,316.6,0.00,7.6,15.0,"19:59:50",1
"16/11/04","20:10",0.0,9.1,91.3,1010.9,289.0,1.3,1.6,273.6,0.00,7.8,14.9,"20:01:10",1
"16/11/04","20:20",0.0,9.1,91.2,1010.7,309.3,1.5,1.8,323.2,0.00,7.8,14.8,"20:16:12",1
"16/11/04","20:30",0.0,8.8,91.4,1010.9,310.8,1.6,2.1,323.2,0.00,7.5,14.7,"20:20:08",1
"16/11/04","20:40",0.0,8.6,92.1,1010.7,292.9,1.3,1.9,319.2,0.00,7.4,14.7,"20:31:56",1
"16/11/04","20:50",0.0,8.6,92.6,1010.9,297.7,1.5,2.1,307.0,0.00,7.5,14.3,"20:49:00",1
"16/11/04","21:00",0.0,8.6,92.8,1010.9,298.0,1.5,1.9,320.5,0.00,7.5,14.2,"20:52:16",1
"16/11/04","21:10",0.0,8.6,92.9,1011.2,299.2,1.2,2.0,318.7,0.00,7.6,14.3,"21:06:56",1
"16/11/04","21:20",0.0,8.3,93.0,1010.9,317.6,1.7,2.2,315.6,0.00,7.3,14.3,"21:15:10",1
"16/11/04","21:30",0.0,8.3,93.7,1011.2,327.7,1.7,2.1,333.9,0.00,7.4,14.3,"21:21:28",1
"16/11/04","21:40",0.0,8.1,93.7,1011.2,304.1,1.5,1.9,317.5,0.00,7.2,14.1,"21:30:02",1
"16/11/04","21:50",0.0,7.7,94.0,1011.2,301.7,1.7,2.1,313.2,0.00,6.8,14.0,"21:48:24",1
"16/11/04","22:00",0.0,7.4,94.6,1010.9,304.0,1.5,1.8,311.4,0.00,6.6,14.0,"21:51:52",1
"16/11/04","22:10",0.0,7.3,94.9,1011.2,302.0,1.2,1.8,310.5,0.00,6.6,14.0,"22:00:08",1
"16/11/04","22:20",0.0,7.3,95.5,1011.2,298.5,1.8,2.8,324.5,0.00,6.7,13.7,"22:14:24",1
"16/11/04","22:30",0.0,7.1,95.7,1011.2,295.3,1.7,2.1,306.4,0.00,6.5,13.7,"22:26:48",1
"16/11/04","22:40",0.0,7.0,96.3,1011.2,302.3,1.7,2.5,316.8,0.00,6.5,13.7,"22:32:56",1
"16/11/04","22:50",0.0,7.3,96.6,1010.9,285.7,1.6,1.7,288.7,0.00,6.8,13.7,"22:44:48",1
"16/11/04","23:00",0.0,7.2,96.5,1010.9,304.4,1.7,2.2,317.3,0.00,6.7,13.7,"22:58:08",1
"16/11/04","23:10",0.0,7.0,96.8,1010.7,311.3,2.3,2.7,321.1,0.00,6.6,13.7,"23:03:28",1
"16/11/04","23:20",0.0,7.0,97.1,1011.2,301.9,1.7,2.5,317.7,0.00,6.6,13.5,"23:10:08",1
"16/11/04","23:30",0.0,6.9,97.0,1010.7,300.9,1.6,2.1,303.6,0.00,6.5,13.5,"23:23:28",1
"16/11/04","23:40",0.0,6.6,97.1,1010.9,287.2,1.0,1.3,284.0,0.00,6.2,13.3,"23:31:52",1
"16/11/04","23:50",0.0,6.6,97.4,1010.7,307.9,1.8,2.8,320.5,0.00,6.3,13.4,"23:49:04",1
"16/11/04","24:00",0.0,6.6,97.7,1010.7,312.7,2.1,3.1,322.9,0.00,6.3,13.4,"23:51:36",1
